| time (UTC) | temp F | wind direction | speed knots | gust knots | rain 1hr in | rain 24hr in | rain mn in | humidity % | barometer mb |
| 20260904121504 | 79 | 140 | 0.0 | 3.5 | 0.00 | 0.00 | 0.00 | 92 | 1014.4 |
| 20260904120004 | 79 | 163 | 0.0 | 2.6 | 0.00 | 0.00 | 0.00 | 93 | 1014.5 |
| 20260904114525 | 79 | 0 | 0.0 | 0.0 | 0.00 | 0.00 | 0.00 | 93 | 1014.6 |
| 20260904113024 | 78 | 175 | 0.0 | 1.7 | 0.00 | 0.00 | 0.00 | 93 | 1014.3 |
| 20260904111504 | 78 | 169 | 0.0 | 0.9 | 0.00 | 0.00 | 0.00 | 94 | 1014.2 |
| 20260904110004 | 78 | 123 | 0.0 | 2.6 | 0.00 | 0.00 | 0.00 | 93 | 1013.9 |
| 20260904104503 | 78 | 163 | 0.0 | 4.3 | 0.00 | 0.00 | 0.00 | 94 | 1013.6 |
| 20260904103003 | 78 | 124 | 0.0 | 2.6 | 0.00 | 0.00 | 0.00 | 94 | 1013.9 |
| 20260904101504 | 78 | 163 | 0.0 | 0.9 | 0.00 | 0.00 | 0.00 | 93 | 1013.6 |
| 20260904100004 | 78 | 0 | 0.0 | 0.0 | 0.00 | 0.00 | 0.00 | 93 | 1014.0 |
| 20260904094504 | 78 | 103 | 0.0 | 0.9 | 0.00 | 0.00 | 0.00 | 92 | 1014.0 |
| 20260904093003 | 79 | 162 | 0.0 | 2.6 | 0.00 | 0.00 | 0.00 | 92 | 1013.9 |
| 20260904091504 | 79 | 166 | 0.0 | 4.3 | 0.00 | 0.00 | 0.00 | 91 | 1014.0 |
| 20260904090004 | 79 | 115 | 0.0 | 0.9 | 0.00 | 0.00 | 0.00 | 92 | 1014.1 |
| 20260904084503 | 79 | 227 | 0.0 | 3.5 | 0.00 | 0.00 | 0.00 | 92 | 1013.7 |
| 20260904083004 | 79 | 197 | 0.0 | 1.7 | 0.00 | 0.00 | 0.00 | 92 | 1013.8 |
| 20260904081503 | 79 | 227 | 0.0 | 0.9 | 0.00 | 0.00 | 0.00 | 92 | 1013.7 |
| 20260904080003 | 79 | 142 | 0.0 | 2.6 | 0.00 | 0.00 | 0.00 | 92 | 1013.7 |
| 20260904074505 | 79 | 133 | 0.0 | 5.2 | 0.00 | 0.00 | 0.00 | 91 | 1013.7 |
| 20260904073005 | 79 | 238 | 0.0 | 1.7 | 0.00 | 0.00 | 0.00 | 92 | 1013.8 |
| 20260904071505 | 79 | 152 | 0.0 | 1.7 | 0.00 | 0.00 | 0.00 | 92 | 1013.7 |
| 20260904070005 | 79 | 135 | 0.0 | 0.9 | 0.00 | 0.00 | 0.00 | 92 | 1013.6 |
| 20260904064526 | 79 | 132 | 0.0 | 2.6 | 0.00 | 0.00 | 0.00 | 92 | 1013.5 |
| 20260904063005 | 79 | 220 | 0.0 | 0.9 | 0.00 | 0.00 | 0.00 | 92 | 1013.7 |
| 20260904061505 | 79 | 280 | 0.0 | 0.9 | 0.00 | 0.00 | 0.00 | 92 | 1014.0 |
| 20260904060026 | 79 | 114 | 0.0 | 0.9 | 0.00 | 0.00 | 0.00 | 92 | 1014.2 |
| 20260904054505 | 80 | 131 | 0.0 | 0.9 | 0.00 | 0.00 | 0.00 | 91 | 1014.3 |
| 20260904053005 | 80 | 227 | 0.0 | 1.7 | 0.00 | 0.00 | 0.00 | 91 | 1014.5 |
| 20260904051505 | 80 | 217 | 0.0 | 2.6 | 0.00 | 0.00 | 0.00 | 90 | 1014.7 |
| 20260904050005 | 80 | 213 | 0.9 | 3.5 | 0.00 | 0.00 | 0.00 | 90 | 1014.7 |
| 20260904044505 | 80 | 217 | 0.0 | 5.2 | 0.00 | 0.00 | 0.00 | 89 | 1014.6 |
| 20260904043005 | 81 | 171 | 0.0 | 2.6 | 0.00 | 0.00 | 0.00 | 88 | 1014.8 |
| 20260904041505 | 81 | 166 | 0.0 | 3.5 | 0.00 | 0.00 | 0.00 | 88 | 1014.8 |
| 20260904040007 | 81 | 180 | 0.9 | 3.5 | 0.00 | 0.00 | 0.00 | 87 | 1014.7 |
| 20260904034505 | 81 | 199 | 0.0 | 3.5 | 0.00 | 0.00 | 0.00 | 87 | 1014.6 |
| 20260904033005 | 82 | 227 | 0.0 | 0.9 | 0.00 | 0.00 | 0.00 | 86 | 1014.7 |
| 20260904031505 | 82 | 242 | 0.9 | 4.3 | 0.00 | 0.00 | 0.00 | 85 | 1014.8 |
| 20260904030005 | 82 | 195 | 0.9 | 3.5 | 0.00 | 0.00 | 0.00 | 85 | 1014.8 |
| 20260904024505 | 82 | 152 | 0.9 | 3.5 | 0.00 | 0.00 | 0.00 | 85 | 1014.8 |
| 20260904023005 | 83 | 234 | 0.9 | 3.5 | 0.00 | 0.00 | 0.00 | 84 | 1015.0 |
| 20260904021505 | 83 | 209 | 0.9 | 5.2 | 0.00 | 0.00 | 0.00 | 84 | 1015.1 |
| 20260904020025 | 84 | 179 | 0.9 | 3.5 | 0.00 | 0.00 | 0.00 | 84 | 1015.2 |
| 20260904014504 | 84 | 199 | 0.9 | 6.1 | 0.00 | 0.00 | 0.00 | 83 | 1015.2 |
| 20260904013005 | 84 | 174 | 0.0 | 1.7 | 0.00 | 0.00 | 0.00 | 83 | 1015.0 |
| 20260904011505 | 85 | 202 | 0.0 | 3.5 | 0.00 | 0.00 | 0.00 | 83 | 1014.9 |
| 20260904010004 | 85 | 246 | 0.0 | 3.5 | 0.00 | 0.00 | 0.00 | 83 | 1014.8 |
| 20260904004505 | 86 | 222 | 0.0 | 3.5 | 0.00 | 0.00 | 0.00 | 84 | 1014.4 |
| 20260904003005 | 86 | 187 | 0.0 | 3.5 | 0.00 | 0.00 | 0.00 | 85 | 1014.1 |
| 20260904001505 | 86 | 269 | 0.0 | 0.9 | 0.00 | 0.00 | 0.00 | 84 | 1013.7 |
| 20260904000025 | 86 | 137 | 0.0 | 0.9 | 0.00 | 0.00 | 0.00 | 83 | 1013.5 |
| 20260903234506 | 87 | 0 | 0.0 | 0.0 | 0.00 | 0.00 | 0.00 | 81 | 1013.3 |
| 20260903233005 | 88 | 141 | 0.0 | 0.9 | 0.00 | 0.00 | 0.00 | 79 | 1013.2 |
| 20260903231504 | 89 | 0 | 0.0 | 0.0 | 0.00 | 0.00 | 0.00 | 78 | 1013.2 |
| 20260903230005 | 90 | 139 | 0.0 | 0.9 | 0.00 | 0.00 | 0.00 | 76 | 1013.3 |
| 20260903224505 | 91 | 151 | 0.0 | 0.9 | 0.00 | 0.00 | 0.00 | 75 | 1013.1 |
| 20260903223025 | 91 | 132 | 0.0 | 1.7 | 0.00 | 0.00 | 0.00 | 73 | 1013.2 |
| 20260903221504 | 92 | 156 | 0.0 | 2.6 | 0.00 | 0.00 | 0.00 | 71 | 1013.2 |
| 20260903220004 | 93 | 200 | 0.0 | 3.5 | 0.00 | 0.00 | 0.00 | 69 | 1013.3 |
| 20260903214505 | 93 | 190 | 0.9 | 3.5 | 0.00 | 0.00 | 0.00 | 68 | 1013.3 |
| 20260903213004 | 95 | 190 | 0.9 | 5.2 | 0.00 | 0.00 | 0.00 | 65 | 1013.3 |
| 20260903211504 | 96 | 180 | 0.9 | 4.3 | 0.00 | 0.00 | 0.00 | 62 | 1013.5 |
| 20260903210005 | 97 | 164 | 0.0 | 4.3 | 0.00 | 0.00 | 0.00 | 62 | 1013.6 |
| 20260903204504 | 96 | 178 | 0.9 | 6.1 | 0.00 | 0.00 | 0.00 | 62 | 1013.6 |
| 20260903203004 | 97 | 182 | 0.9 | 2.6 | 0.00 | 0.00 | 0.00 | 62 | 1013.7 |
| 20260903201504 | 97 | 171 | 0.9 | 3.5 | 0.00 | 0.00 | 0.00 | 61 | 1014.0 |
| 20260903200026 | 98 | 173 | 0.0 | 4.3 | 0.00 | 0.00 | 0.00 | 61 | 1014.2 |
| 20260903194504 | 97 | 159 | 0.9 | 5.2 | 0.00 | 0.00 | 0.00 | 63 | 1014.3 |
| 20260903193005 | 96 | 196 | 0.9 | 4.3 | 0.00 | 0.00 | 0.00 | 63 | 1014.5 |
| 20260903191504 | 96 | 174 | 0.9 | 5.2 | 0.00 | 0.00 | 0.00 | 65 | 1014.5 |
| 20260903190005 | 96 | 178 | 0.9 | 2.6 | 0.00 | 0.00 | 0.00 | 65 | 1014.7 |
| 20260903184504 | 96 | 236 | 0.9 | 5.2 | 0.00 | 0.00 | 0.00 | 67 | 1014.7 |
| 20260903183004 | 96 | 162 | 0.9 | 3.5 | 0.00 | 0.00 | 0.00 | 66 | 1014.8 |
| 20260903181504 | 95 | 174 | 0.9 | 4.3 | 0.00 | 0.00 | 0.00 | 67 | 1014.8 |
| 20260903180004 | 95 | 198 | 0.9 | 6.1 | 0.00 | 0.00 | 0.00 | 68 | 1015.0 |
| 20260903174525 | 95 | 223 | 0.9 | 4.3 | 0.00 | 0.00 | 0.00 | 69 | 1015.3 |
| 20260903173004 | 94 | 216 | 0.9 | 4.3 | 0.00 | 0.00 | 0.00 | 70 | 1015.3 |
| 20260903171504 | 94 | 163 | 0.9 | 3.5 | 0.00 | 0.00 | 0.00 | 72 | 1015.5 |
| 20260903170004 | 94 | 158 | 0.9 | 4.3 | 0.00 | 0.00 | 0.00 | 71 | 1015.7 |
| 20260903164525 | 94 | 174 | 0.0 | 3.5 | 0.00 | 0.00 | 0.00 | 71 | 1015.8 |
| 20260903163004 | 93 | 186 | 0.9 | 2.6 | 0.00 | 0.00 | 0.00 | 73 | 1015.9 |
| 20260903161504 | 92 | 198 | 0.9 | 4.3 | 0.00 | 0.00 | 0.00 | 72 | 1015.9 |
| 20260903160025 | 92 | 247 | 0.9 | 4.3 | 0.00 | 0.00 | 0.00 | 75 | 1016.0 |
| 20260903154504 | 91 | 219 | 0.9 | 4.3 | 0.00 | 0.00 | 0.00 | 75 | 1016.3 |
| 20260903153004 | 90 | 186 | 0.9 | 2.6 | 0.00 | 0.00 | 0.00 | 76 | 1016.5 |
| 20260903151525 | 90 | 280 | 0.0 | 4.3 | 0.00 | 0.00 | 0.00 | 78 | 1016.5 |
| 20260903150004 | 88 | 159 | 0.0 | 2.6 | 0.00 | 0.00 | 0.00 | 80 | 1016.4 |
| 20260903144503 | 87 | 174 | 0.0 | 1.7 | 0.00 | 0.00 | 0.00 | 84 | 1016.3 |
| 20260903143004 | 86 | 197 | 0.0 | 3.5 | 0.00 | 0.00 | 0.00 | 83 | 1016.4 |
| 20260903141504 | 85 | 181 | 0.0 | 2.6 | 0.00 | 0.00 | 0.00 | 84 | 1016.5 |
| 20260903140004 | 84 | 187 | 0.0 | 1.7 | 0.00 | 0.00 | 0.00 | 86 | 1016.2 |
| 20260903134504 | 83 | 169 | 0.0 | 3.5 | 0.00 | 0.00 | 0.00 | 87 | 1016.2 |
| 20260903133004 | 82 | 243 | 0.0 | 2.6 | 0.00 | 0.00 | 0.00 | 89 | 1016.2 |
| 20260903131503 | 81 | 159 | 0.0 | 2.6 | 0.00 | 0.00 | 0.00 | 91 | 1016.4 |
| 20260903130025 | 80 | 178 | 0.0 | 1.7 | 0.00 | 0.00 | 0.00 | 93 | 1016.5 |
| 20260903124504 | 79 | 160 | 0.0 | 2.6 | 0.00 | 0.00 | 0.00 | 95 | 1016.5 |
| 20260903123004 | 79 | 178 | 0.0 | 1.7 | 0.00 | 0.00 | 0.00 | 97 | 1016.7 |